Tracking 17694 objects as of 27-May-2016
HD Live streaming from Space Station
objects crossing your sky now

INTELSAT 2-F4

Track INTELSAT 2-F4 now!
INTELSAT 2-F4 is classified as:


NORAD ID: 2969
Int'l Code: 1967-094A
Perigee: 35,800.6 km
Apogee: 35,939.6 km
Inclination: 4.6 °
Period: 1,440.0 minutes
Semi major axis: 42241 km
RCS: 2.5118 m2 (large)
Launch date: September 28, 1967
Source: International Telecommunications Satellite Organization (ITSO)
Launch site: AIR FORCE EASTERN TEST RANGE (AFETR)
Your satellite tracking list
Your tracking list is empty





NASA's NSSDC Master Catalog

Two Line Element Set (TLE):
1 02969U 67094A   16145.28519473 -.00000226  00000-0  00000+0 0  9998
2 02969   4.5614 300.4021 0016462 218.9951 154.0327  1.00273883 79934
Source of the keplerian elements: AFSPC

N2YO: 660